| time (UTC) | temp C | wind direction | speed KPH | gust KPH | rain 1hr cm | rain 24hr cm | rain mn cm | humidity % | barometer mb |
| 20260906120516 | 21 | 0.0 | 0.0 | 0.00 | 0.20 | 0.00 | 96 | 1013.9 | |
| 20260906115516 | 21 | 0.0 | 0.0 | 0.00 | 0.20 | 0.00 | 96 | 1013.7 | |
| 20260906114516 | 21 | 0.0 | 0.0 | 0.00 | 0.20 | 0.00 | 96 | 1013.5 | |
| 20260906113516 | 21 | 0.0 | 0.0 | 0.00 | 0.20 | 0.00 | 96 | 1013.6 | |
| 20260906112516 | 21 | 0.0 | 0.0 | 0.00 | 0.20 | 0.00 | 96 | 1013.7 | |
| 20260906111516 | 21 | 0.0 | 0.0 | 0.00 | 0.20 | 0.00 | 96 | 1013.8 | |
| 20260906110517 | 21 | 0.0 | 0.0 | 0.00 | 0.20 | 0.00 | 96 | 1013.8 | |
| 20260906105516 | 21 | 0.0 | 0.0 | 0.00 | 0.20 | 0.00 | 96 | 1013.8 | |
| 20260906104516 | 21 | 0.0 | 0.0 | 0.00 | 0.20 | 0.00 | 96 | 1013.7 | |
| 20260906103516 | 21 | 0.0 | 0.0 | 0.00 | 0.20 | 0.00 | 96 | 1013.7 | |
| 20260906102516 | 21 | 0.0 | 0.0 | 0.00 | 0.20 | 0.00 | 95 | 1014.1 | |
| 20260906101536 | 21 | 0.0 | 0.0 | 0.00 | 0.20 | 0.00 | 96 | 1014.0 | |
| 20260906100516 | 21 | 0.0 | 0.0 | 0.00 | 0.20 | 0.00 | 96 | 1013.9 | |
| 20260906095537 | 21 | 0.0 | 0.0 | 0.00 | 0.20 | 0.00 | 96 | 1014.1 | |
| 20260906094515 | 21 | 0.0 | 0.0 | 0.00 | 0.20 | 0.00 | 96 | 1014.2 | |
| 20260906093516 | 21 | 0.0 | 0.0 | 0.00 | 0.20 | 0.00 | 96 | 1014.2 | |
| 20260906092515 | 21 | 0.0 | 0.0 | 0.00 | 0.20 | 0.00 | 96 | 1014.3 | |
| 20260906091515 | 21 | 0.0 | 0.0 | 0.00 | 0.20 | 0.00 | 96 | 1014.2 | |
| 20260906090536 | 21 | 0.0 | 0.0 | 0.00 | 0.20 | 0.00 | 96 | 1014.2 | |
| 20260906085535 | 21 | 0.0 | 0.0 | 0.00 | 0.20 | 0.00 | 96 | 1014.3 | |
| 20260906084536 | 21 | 0.0 | 0.0 | 0.00 | 0.20 | 0.00 | 96 | 1014.3 | |
| 20260906083516 | 21 | 0.0 | 0.0 | 0.00 | 0.20 | 0.00 | 96 | 1014.3 | |
| 20260906082515 | 21 | 0.0 | 0.0 | 0.00 | 0.20 | 0.00 | 96 | 1014.2 | |
| 20260906081516 | 21 | 0.0 | 0.0 | 0.00 | 0.20 | 0.00 | 95 | 1014.1 | |
| 20260906080515 | 21 | 0.0 | 0.0 | 0.00 | 0.20 | 0.00 | 96 | 1014.1 | |
| 20260906075515 | 21 | 0.0 | 0.0 | 0.00 | 0.20 | 0.00 | 95 | 1014.1 | |
| 20260906074516 | 21 | 0.0 | 0.0 | 0.00 | 0.20 | 0.00 | 95 | 1014.1 | |
| 20260906073518 | 21 | 0.0 | 0.0 | 0.00 | 0.20 | 0.00 | 95 | 1014.1 | |
| 20260906072517 | 21 | 0.0 | 0.0 | 0.00 | 0.20 | 0.00 | 95 | 1014.1 | |
| 20260906071517 | 21 | 0.0 | 0.0 | 0.00 | 0.20 | 0.00 | 95 | 1014.2 | |
| 20260906070557 | 21 | 0.0 | 0.0 | 0.00 | 0.20 | 0.00 | 95 | 1014.4 | |
| 20260906065517 | 21 | 0.0 | 0.0 | 0.00 | 0.20 | 0.00 | 95 | 1014.2 | |
| 20260906064517 | 21 | 0.0 | 0.0 | 0.00 | 0.20 | 0.00 | 95 | 1014.2 | |
| 20260906063518 | 21 | 0.0 | 0.0 | 0.00 | 0.20 | 0.00 | 95 | 1014.3 | |
| 20260906062518 | 21 | 0.0 | 0.0 | 0.00 | 0.20 | 0.00 | 95 | 1014.2 | |
| 20260906061517 | 21 | 0.0 | 0.0 | 0.00 | 0.20 | 0.00 | 95 | 1014.6 | |
| 20260906060517 | 21 | 0.0 | 0.0 | 0.00 | 0.20 | 0.00 | 95 | 1014.7 | |
| 20260906055517 | 21 | 0.0 | 0.0 | 0.00 | 0.20 | 0.00 | 95 | 1014.9 | |
| 20260906054517 | 21 | 0.0 | 0.0 | 0.00 | 0.20 | 0.00 | 95 | 1015.0 | |
| 20260906053517 | 21 | 0.0 | 0.0 | 0.00 | 0.20 | 0.00 | 95 | 1015.1 | |
| 20260906052517 | 21 | 0.0 | 0.0 | 0.00 | 0.20 | 0.00 | 95 | 1015.1 | |
| 20260906051517 | 21 | 0.0 | 0.0 | 0.00 | 0.20 | 0.00 | 95 | 1015.2 | |
| 20260906050517 | 21 | 0.0 | 0.0 | 0.00 | 0.20 | 0.00 | 95 | 1015.3 | |
| 20260906045517 | 21 | 0.0 | 0.0 | 0.00 | 0.20 | 0.00 | 95 | 1015.1 | |
| 20260906044517 | 21 | 0.0 | 0.0 | 0.00 | 0.20 | 0.00 | 95 | 1015.0 | |
| 20260906043517 | 21 | 0.0 | 0.0 | 0.00 | 0.20 | 0.00 | 94 | 1015.0 | |
| 20260906042517 | 21 | 0.0 | 0.0 | 0.00 | 0.20 | 0.00 | 94 | 1014.9 | |
| 20260906041517 | 22 | 0.0 | 0.0 | 0.00 | 0.20 | 0.00 | 94 | 1014.9 | |
| 20260906040517 | 22 | 0.0 | 0.0 | 0.00 | 0.20 | 0.00 | 95 | 1014.9 | |
| 20260906035517 | 22 | 0.0 | 0.0 | 0.00 | 0.20 | 0.20 | 94 | 1014.8 | |
| 20260906034517 | 22 | 0.0 | 0.0 | 0.00 | 0.20 | 0.20 | 94 | 1014.8 | |
| 20260906033517 | 22 | 0.0 | 0.0 | 0.00 | 0.20 | 0.20 | 94 | 1014.7 | |
| 20260906032517 | 22 | 0.0 | 0.0 | 0.00 | 0.20 | 0.20 | 94 | 1015.0 | |
| 20260906031517 | 22 | 0.0 | 0.0 | 0.00 | 0.20 | 0.20 | 94 | 1015.0 | |
| 20260906030517 | 22 | 0.0 | 0.0 | 0.00 | 0.20 | 0.20 | 94 | 1015.4 | |
| 20260906025517 | 22 | 0.0 | 0.0 | 0.00 | 0.20 | 0.20 | 94 | 1015.3 | |
| 20260906024517 | 22 | 0.0 | 0.0 | 0.00 | 0.20 | 0.20 | 94 | 1015.2 | |
| 20260906023516 | 22 | 0.0 | 0.0 | 0.00 | 0.20 | 0.20 | 94 | 1015.1 | |
| 20260906022517 | 22 | 0.0 | 0.0 | 0.00 | 0.20 | 0.20 | 93 | 1015.0 | |
| 20260906021516 | 22 | 0.0 | 0.0 | 0.00 | 0.20 | 0.20 | 93 | 1014.8 | |
| 20260906020516 | 22 | 0.0 | 0.0 | 0.00 | 0.20 | 0.20 | 93 | 1014.8 | |
| 20260906015517 | 22 | 0.0 | 0.0 | 0.00 | 0.20 | 0.20 | 93 | 1014.8 | |
| 20260906014517 | 22 | 0.0 | 0.0 | 0.00 | 0.20 | 0.20 | 93 | 1014.8 | |
| 20260906013517 | 22 | 203 | 1.6 | 4.8 | 0.00 | 0.20 | 0.20 | 93 | 1014.9 |
| 20260906012517 | 23 | 0.0 | 0.0 | 0.00 | 0.20 | 0.20 | 94 | 1014.9 | |
| 20260906011516 | 23 | 0.0 | 1.6 | 0.00 | 0.20 | 0.20 | 94 | 1014.5 | |
| 20260906010517 | 23 | 203 | 1.6 | 6.4 | 0.00 | 0.20 | 0.20 | 94 | 1014.2 |
| 20260906005517 | 23 | 203 | 1.6 | 6.4 | 0.00 | 0.20 | 0.20 | 94 | 1013.8 |
| 20260906004537 | 22 | 0.0 | 4.8 | 0.00 | 0.20 | 0.20 | 93 | 1013.7 | |
| 20260906003516 | 22 | 0.0 | 0.0 | 0.00 | 0.20 | 0.20 | 93 | 1013.1 | |
| 20260906002516 | 23 | 0.0 | 0.0 | 0.00 | 0.20 | 0.20 | 93 | 1013.1 | |
| 20260906001516 | 23 | 0.0 | 0.0 | 0.00 | 0.20 | 0.20 | 92 | 1013.0 | |
| 20260906000516 | 23 | 0.0 | 0.0 | 0.00 | 0.20 | 0.20 | 93 | 1012.7 | |
| 20260905235516 | 23 | 0.0 | 3.2 | 0.00 | 0.20 | 0.20 | 92 | 1012.3 | |
| 20260905234516 | 23 | 0.0 | 0.0 | 0.03 | 0.20 | 0.20 | 92 | 1012.1 | |
| 20260905233517 | 23 | 0.0 | 0.0 | 0.08 | 0.20 | 0.20 | 92 | 1012.3 | |
| 20260905232516 | 23 | 0.0 | 0.0 | 0.13 | 0.20 | 0.20 | 92 | 1012.4 | |
| 20260905231516 | 23 | 0.0 | 0.0 | 0.20 | 0.20 | 0.20 | 91 | 1012.5 | |
| 20260905230636 | 23 | 0.0 | 0.0 | 0.20 | 0.20 | 0.20 | 90 | 1012.6 | |
| 20260905225516 | 23 | 203 | 4.8 | 12.9 | 0.20 | 0.20 | 0.20 | 89 | 1012.5 |
| 20260905224516 | 23 | 203 | 3.2 | 6.4 | 0.18 | 0.18 | 0.18 | 88 | 1013.6 |
| 20260905223516 | 24 | 180 | 1.6 | 6.4 | 0.13 | 0.13 | 0.13 | 85 | 1014.6 |
| 20260905222517 | 26 | 248 | 3.2 | 6.4 | 0.08 | 0.08 | 0.08 | 79 | 1015.2 |
| 20260905221516 | 28 | 45 | 6.4 | 20.9 | 0.00 | 0.00 | 0.00 | 69 | 1014.6 |
| 20260905220516 | 31 | 113 | 3.2 | 14.5 | 0.00 | 0.00 | 0.00 | 55 | 1014.1 |
| 20260905215516 | 32 | 315 | 1.6 | 9.7 | 0.00 | 0.00 | 0.00 | 57 | 1013.1 |
| 20260905214516 | 33 | 0.0 | 1.6 | 0.00 | 0.00 | 0.00 | 60 | 1012.5 | |
| 20260905213515 | 33 | 0.0 | 0.0 | 0.00 | 0.00 | 0.00 | 56 | 1012.5 | |
| 20260905212517 | 34 | 23 | 1.6 | 4.8 | 0.00 | 0.00 | 0.00 | 54 | 1012.4 |
| 20260905211515 | 35 | 0.0 | 1.6 | 0.00 | 0.00 | 0.00 | 52 | 1012.6 | |
| 20260905210516 | 35 | 225 | 1.6 | 4.8 | 0.00 | 0.00 | 0.00 | 44 | 1012.6 |
| 20260905205516 | 36 | 0.0 | 0.0 | 0.00 | 0.00 | 0.00 | 49 | 1012.8 | |
| 20260905204516 | 36 | 338 | 1.6 | 4.8 | 0.00 | 0.00 | 0.00 | 46 | 1013.0 |
| 20260905203536 | 36 | 23 | 1.6 | 4.8 | 0.00 | 0.00 | 0.00 | 45 | 1013.1 |
| 20260905202516 | 36 | 45 | 1.6 | 4.8 | 0.00 | 0.00 | 0.00 | 44 | 1013.2 |
| 20260905201557 | 37 | 23 | 1.6 | 6.4 | 0.00 | 0.00 | 0.00 | 43 | 1013.5 |
| 20260905200516 | 37 | 23 | 1.6 | 6.4 | 0.00 | 0.00 | 0.00 | 42 | 1013.5 |
| 20260905195515 | 37 | 23 | 1.6 | 4.8 | 0.00 | 0.00 | 0.00 | 43 | 1013.6 |
| 20260905194515 | 37 | 113 | 1.6 | 4.8 | 0.00 | 0.00 | 0.00 | 42 | 1013.6 |
| 20260905193515 | 37 | 203 | 1.6 | 4.8 | 0.00 | 0.00 | 0.00 | 45 | 1013.7 |
| 20260905192517 | 37 | 180 | 1.6 | 4.8 | 0.00 | 0.00 | 0.00 | 43 | 1013.8 |
| 20260905191517 | 36 | 23 | 1.6 | 4.8 | 0.00 | 0.00 | 0.00 | 45 | 1014.0 |
| 20260905190539 | 36 | 0.0 | 4.8 | 0.00 | 0.00 | 0.00 | 42 | 1014.1 | |
| 20260905185517 | 36 | 0.0 | 1.6 | 0.00 | 0.00 | 0.00 | 45 | 1014.4 | |
| 20260905184517 | 36 | 45 | 1.6 | 4.8 | 0.00 | 0.00 | 0.00 | 45 | 1014.5 |
| 20260905183517 | 36 | 338 | 1.6 | 6.4 | 0.00 | 0.00 | 0.00 | 45 | 1014.7 |
| 20260905182517 | 36 | 45 | 1.6 | 4.8 | 0.00 | 0.00 | 0.00 | 48 | 1014.7 |
| 20260905181517 | 36 | 0.0 | 6.4 | 0.00 | 0.00 | 0.00 | 46 | 1014.9 | |
| 20260905180517 | 36 | 0 | 1.6 | 3.2 | 0.00 | 0.00 | 0.00 | 45 | 1015.0 |
| 20260905175517 | 35 | 0.0 | 3.2 | 0.00 | 0.00 | 0.00 | 50 | 1015.0 | |
| 20260905174559 | 36 | 23 | 3.2 | 8.0 | 0.00 | 0.00 | 0.00 | 49 | 1015.1 |
| 20260905173517 | 36 | 0 | 3.2 | 9.7 | 0.00 | 0.00 | 0.00 | 48 | 1015.3 |
| 20260905172537 | 36 | 0.0 | 3.2 | 0.00 | 0.00 | 0.00 | 50 | 1015.5 | |
| 20260905171537 | 35 | 0.0 | 4.8 | 0.00 | 0.00 | 0.00 | 52 | 1015.6 | |
| 20260905170517 | 35 | 0.0 | 3.2 | 0.00 | 0.00 | 0.00 | 52 | 1015.7 | |
| 20260905165517 | 35 | 338 | 3.2 | 9.7 | 0.00 | 0.00 | 0.00 | 53 | 1015.9 |
| 20260905164518 | 34 | 225 | 1.6 | 9.7 | 0.00 | 0.00 | 0.00 | 54 | 1015.8 |
| 20260905163517 | 34 | 203 | 3.2 | 8.0 | 0.00 | 0.00 | 0.00 | 56 | 1016.0 |
| 20260905162517 | 33 | 0 | 1.6 | 6.4 | 0.00 | 0.00 | 0.00 | 56 | 1016.3 |
| 20260905161517 | 33 | 23 | 3.2 | 14.5 | 0.00 | 0.00 | 0.00 | 58 | 1016.4 |
| 20260905160517 | 33 | 0 | 1.6 | 6.4 | 0.00 | 0.00 | 0.00 | 60 | 1016.3 |
| 20260905155517 | 32 | 180 | 1.6 | 6.4 | 0.00 | 0.00 | 0.00 | 61 | 1016.4 |
| 20260905154517 | 32 | 158 | 1.6 | 8.0 | 0.00 | 0.00 | 0.00 | 63 | 1016.6 |
| 20260905153516 | 31 | 338 | 1.6 | 4.8 | 0.00 | 0.00 | 0.00 | 64 | 1016.6 |
| 20260905152638 | 30 | 225 | 3.2 | 6.4 | 0.00 | 0.00 | 0.00 | 69 | 1016.7 |
| 20260905151516 | 30 | 23 | 1.6 | 8.0 | 0.00 | 0.00 | 0.00 | 71 | 1016.6 |
| 20260905150517 | 28 | 0 | 1.6 | 6.4 | 0.00 | 0.00 | 0.00 | 72 | 1016.6 |
| 20260905145517 | 28 | 23 | 1.6 | 4.8 | 0.00 | 0.00 | 0.00 | 75 | 1016.7 |
| 20260905144517 | 28 | 203 | 1.6 | 6.4 | 0.00 | 0.00 | 0.00 | 75 | 1016.5 |
| 20260905143517 | 27 | 23 | 1.6 | 6.4 | 0.00 | 0.00 | 0.00 | 77 | 1016.7 |
| 20260905142517 | 27 | 23 | 1.6 | 4.8 | 0.00 | 0.00 | 0.00 | 78 | 1016.7 |
| 20260905141517 | 27 | 0 | 1.6 | 6.4 | 0.00 | 0.00 | 0.00 | 79 | 1016.8 |
| 20260905140517 | 26 | 23 | 3.2 | 8.0 | 0.00 | 0.00 | 0.00 | 79 | 1016.7 |
| 20260905135516 | 26 | 0.0 | 3.2 | 0.00 | 0.00 | 0.00 | 82 | 1016.6 | |
| 20260905134516 | 25 | 0.0 | 4.8 | 0.00 | 0.00 | 0.00 | 84 | 1016.7 | |
| 20260905133516 | 25 | 180 | 1.6 | 3.2 | 0.00 | 0.00 | 0.00 | 88 | 1016.7 |
| 20260905132537 | 24 | 180 | 1.6 | 4.8 | 0.00 | 0.00 | 0.00 | 90 | 1016.9 |
| 20260905131516 | 23 | 0.0 | 1.6 | 0.00 | 0.00 | 0.00 | 93 | 1017.0 | |
| 20260905130516 | 23 | 0.0 | 0.0 | 0.00 | 0.00 | 0.00 | 95 | 1017.0 | |
| 20260905125516 | 23 | 0.0 | 0.0 | 0.00 | 0.00 | 0.00 | 96 | 1017.0 | |
| 20260905124516 | 23 | 0.0 | 0.0 | 0.00 | 0.00 | 0.00 | 96 | 1016.9 | |
| 20260905123516 | 22 | 0.0 | 0.0 | 0.00 | 0.00 | 0.00 | 96 | 1016.8 | |
| 20260905122516 | 22 | 0.0 | 0.0 | 0.00 | 0.00 | 0.00 | 95 | 1016.8 | |
| 20260905121517 | 22 | 0.0 | 0.0 | 0.00 | 0.00 | 0.00 | 95 | 1016.7 |